Location: Prague
(50.0830°N, 14.4670°E)
Time: 02:09:56
(UTC+02:00)

ISS - Visible Passes

Search period start: 21 September 2020 00:00
Search period end: 01 October 2020 00:00
Orbit: 419 x 420 km, 51.6° (Epoch: 21 September)

Date Brightness Start Highest point End Pass type
(mag) Time Alt. Az. Time Alt. Az. Time Alt. Az.
21 Sep -3.9 20:54:44 10° WSW 20:58:08 89° SSE 20:58:28 70° ENE visible
22 Sep -3.8 20:07:22 10° WSW 20:10:44 70° SSE 20:13:00 19° ENE visible
22 Sep -1.7 21:44:16 10° W 21:45:57 27° WNW 21:45:57 27° WNW visible
23 Sep -3.7 20:56:48 10° W 21:00:10 68° N 21:00:24 65° NNE visible
24 Sep -3.7 20:09:19 10° W 20:12:42 77° NNW 20:14:47 21° ENE visible
24 Sep -1.4 21:46:18 10° WNW 21:47:45 23° WNW 21:47:45 23° WNW visible
25 Sep -3.7 19:21:52 10° WSW 19:25:14 89° S 19:28:38 10° ENE visible
25 Sep -3.5 20:58:50 10° W 21:02:05 65° N 21:02:05 65° N visible
26 Sep -3.5 20:11:20 10° W 20:14:42 64° N 20:16:24 26° ENE visible
26 Sep -1.1 21:48:14 10° WNW 21:49:21 19° WNW 21:49:21 19° WNW visible
27 Sep -3.5 19:23:50 10° W 19:27:12 68° N 19:30:34 10° ENE visible
27 Sep -3.3 21:00:46 10° WNW 21:03:39 61° WNW 21:03:39 61° WNW visible
28 Sep -3.7 20:13:17 10° WNW 20:16:40 71° N 20:17:57 34° E visible
28 Sep -0.8 21:50:10 10° W 21:50:54 15° W 21:50:54 15° W visible
29 Sep -3.5 19:25:46 10° W 19:29:08 65° N 19:32:15 12° E visible
29 Sep -2.8 21:02:39 10° WNW 21:05:12 45° W 21:05:12 45° W visible
30 Sep -3.8 20:15:08 10° WNW 20:18:32 81° SSW 20:19:31 43° ESE visible
30 Sep -0.4 21:52:20 10° W 21:52:29 11° W 21:52:29 11° W visible
